owner,sensor,date,latitude,longitude,vertical_datum,direction_of_sea_water_velocity,sea_water_speed,upward_sea_water_velocity,qcFlag 
TABS,ioos:station:wmo:42050:1,2000-09-01T00:00:00Z,28.8425,-94.2433,2.0,115.816069,20.52885774,-99999.0,'11111222,11111222,99999999' 
TABS,ioos:station:wmo:42050:1,2000-09-01T00:30:00Z,28.8425,-94.2433,2.0,122.5041271,19.9679368,-99999.0,'11111222,11111222,99999999' 
TABS,ioos:station:wmo:42050:1,2000-09-01T01:00:00Z,28.8425,-94.2433,2.0,121.8381007,20.34038594,-99999.0,'11111222,11111222,99999999' 
TABS,ioos:station:wmo:42050:1,2000-09-01T01:30:00Z,28.8425,-94.2433,2.0,125.5842904,19.96902602,-99999.0,'11111222,11111222,99999999' 
TABS,ioos:station:wmo:42050:1,2000-09-01T02:00:00Z,28.8425,-94.2433,2.0,126.3687618,20.35477831,-99999.0,'11111222,11111222,99999999' 
TABS,ioos:station:wmo:42050:1,2000-09-01T02:30:00Z,28.8425,-94.2433,2.0,124.7542094,17.77011255,-99999.0,'11111222,11111222,99999999' 
TABS,ioos:station:wmo:42050:1,2000-09-01T03:00:00Z,28.8425,-94.2433,2.0,124.7900496,14.87980175,-99999.0,'11111222,11111222,99999999' 
TABS,ioos:station:wmo:42050:1,2000-09-01T03:30:00Z,28.8425,-94.2433,2.0,119.0706553,13.80974294,-99999.0,'11111222,11111222,99999999' 
TABS,ioos:station:wmo:42050:1,2000-09-01T04:00:00Z,28.8425,-94.2433,2.0,109.8412266,9.663669075,-99999.0,'11133222,11111222,99999999' 
TABS,ioos:station:wmo:42050:1,2000-09-01T04:30:00Z,28.8425,-94.2433,2.0,102.3569684,9.76625312,-99999.0,'11133222,11111222,99999999' 
TABS,ioos:station:wmo:42050:1,2000-09-01T05:00:00Z,28.8425,-94.2433,2.0,85.88270709,10.30659983,-99999.0,'11111222,11111222,99999999' 
TABS,ioos:station:wmo:42050:1,2000-09-01T05:30:00Z,28.8425,-94.2433,2.0,76.38972036,10.11401503,-99999.0,'11111222,11111222,99999999' 
TABS,ioos:station:wmo:42050:1,2000-09-01T06:00:00Z,28.8425,-94.2433,2.0,77.23789465,11.45293849,-99999.0,'11111222,11111222,99999999' 
TABS,ioos:station:wmo:42050:1,2000-09-01T06:30:00Z,28.8425,-94.2433,2.0,61.51291464,11.86678137,-99999.0,'11111222,11111222,99999999' 
TABS,ioos:station:wmo:42050:1,2000-09-01T07:00:00Z,28.8425,-94.2433,2.0,57.98029454,12.65531509,-99999.0,'11111222,11111222,99999999' 
TABS,ioos:station:wmo:42050:1,2000-09-01T07:30:00Z,28.8425,-94.2433,2.0,30.53768617,9.683078023,-99999.0,'11133222,11111222,99999999' 
TABS,ioos:station:wmo:42050:1,2000-09-01T08:00:00Z,28.8425,-94.2433,2.0,56.77720038,14.96630883,-99999.0,'11111222,11111222,99999999' 
TABS,ioos:station:wmo:42050:1,2000-09-01T08:30:00Z,28.8425,-94.2433,2.0,75.41831217,14.7759399,-99999.0,'11111222,11111222,99999999' 
TABS,ioos:station:wmo:42050:1,2000-09-01T09:00:00Z,28.8425,-94.2433,2.0,80.52285841,12.69324624,-99999.0,'11111222,11111222,99999999' 
TABS,ioos:station:wmo:42050:1,2000-09-01T09:30:00Z,28.8425,-94.2433,2.0,80.75608684,12.07683733,-99999.0,'11111222,11111222,99999999' 
TABS,ioos:station:wmo:42050:1,2000-09-01T10:00:00Z,28.8425,-94.2433,2.0,73.6125388,15.8436391,-99999.0,'11111222,11111222,99999999' 
TABS,ioos:station:wmo:42050:1,2000-09-01T10:30:00Z,28.8425,-94.2433,2.0,87.72354488,11.32894082,-99999.0,'11111222,11111222,99999999' 
TABS,ioos:station:wmo:42050:1,2000-09-01T11:00:00Z,28.8425,-94.2433,2.0,78.70651577,6.842492236,-99999.0,'11133222,11111222,99999999' 
TABS,ioos:station:wmo:42050:1,2000-09-01T11:30:00Z,28.8425,-94.2433,2.0,83.58256523,10.64671311,-99999.0,'11111222,11111222,99999999' 
TABS,ioos:station:wmo:42050:1,2000-09-01T12:00:00Z,28.8425,-94.2433,2.0,90.71200534,12.07093203,-99999.0,'11111222,11111222,99999999' 
TABS,ioos:station:wmo:42050:1,2000-09-01T12:30:00Z,28.8425,-94.2433,2.0,95.84724177,11.6807748,-99999.0,'11111222,11111222,99999999' 
TABS,ioos:station:wmo:42050:1,2000-09-01T13:00:00Z,28.8425,-94.2433,2.0,119.5758287,13.87830681,-99999.0,'11111222,11111222,99999999' 
TABS,ioos:station:wmo:42050:1,2000-09-01T13:30:00Z,28.8425,-94.2433,2.0,129.8844442,13.00599862,-99999.0,'11111222,11111222,99999999' 
TABS,ioos:station:wmo:42050:1,2000-09-01T14:00:00Z,28.8425,-94.2433,2.0,130.8165059,12.98880287,-99999.0,'11111222,11111222,99999999' 
TABS,ioos:station:wmo:42050:1,2000-09-01T14:30:00Z,28.8425,-94.2433,2.0,135.4337253,14.00818689,-99999.0,'11111222,11111222,99999999' 
TABS,ioos:station:wmo:42050:1,2000-09-01T15:00:00Z,28.8425,-94.2433,2.0,136.7179577,13.91504581,-99999.0,'11111222,11111222,99999999' 
TABS,ioos:station:wmo:42050:1,2000-09-01T15:30:00Z,28.8425,-94.2433,2.0,128.8975939,10.90883128,-99999.0,'11111222,11111222,99999999' 
TABS,ioos:station:wmo:42050:1,2000-09-01T16:00:00Z,28.8425,-94.2433,2.0,121.1234002,9.228374721,-99999.0,'11133222,11111222,99999999' 
TABS,ioos:station:wmo:42050:1,2000-09-01T16:30:00Z,28.8425,-94.2433,2.0,105.7631944,8.20870879,-99999.0,'11133222,11111222,99999999' 
TABS,ioos:station:wmo:42050:1,2000-09-01T17:00:00Z,28.8425,-94.2433,2.0,91.74805291,9.834576758,-99999.0,'11133222,11111222,99999999' 
TABS,ioos:station:wmo:42050:1,2000-09-01T17:30:00Z,28.8425,-94.2433,2.0,90.0,11.47,-99999.0,'11111222,11111222,99999999' 
TABS,ioos:station:wmo:42050:1,2000-09-01T18:00:00Z,28.8425,-94.2433,2.0,82.7902951,14.26276972,-99999.0,'11111222,11111222,99999999' 
TABS,ioos:station:wmo:42050:1,2000-09-01T18:30:00Z,28.8425,-94.2433,2.0,73.0390041,16.3512232,-99999.0,'11111222,11111222,99999999' 
TABS,ioos:station:wmo:42050:1,2000-09-01T19:00:00Z,28.8425,-94.2433,2.0,70.51019453,17.86357187,-99999.0,'11111222,11111222,99999999' 
TABS,ioos:station:wmo:42050:1,2000-09-01T19:30:00Z,28.8425,-94.2433,2.0,67.95695566,20.25025679,-99999.0,'11111222,11111222,99999999' 
TABS,ioos:station:wmo:42050:1,2000-09-01T20:00:00Z,28.8425,-94.2433,2.0,71.5731043,22.61977232,-99999.0,'11111222,11111222,99999999' 
TABS,ioos:station:wmo:42050:1,2000-09-01T20:30:00Z,28.8425,-94.2433,2.0,66.24334691,20.35477585,-99999.0,'11111222,11111222,99999999' 
TABS,ioos:station:wmo:42050:1,2000-09-01T21:00:00Z,28.8425,-94.2433,2.0,65.57870745,23.07448158,-99999.0,'11111222,11111222,99999999' 
TABS,ioos:station:wmo:42050:1,2000-09-01T21:30:00Z,28.8425,-94.2433,2.0,68.33041149,21.80069036,-99999.0,'11111222,11111222,99999999' 
TABS,ioos:station:wmo:42050:1,2000-09-01T22:00:00Z,28.8425,-94.2433,2.0,68.81017047,23.48808421,-99999.0,'11111222,11111222,99999999' 
TABS,ioos:station:wmo:42050:1,2000-09-01T22:30:00Z,28.8425,-94.2433,2.0,72.37094105,23.60873779,-99999.0,'11111222,11111222,99999999' 
TABS,ioos:station:wmo:42050:1,2000-09-01T23:00:00Z,28.8425,-94.2433,2.0,75.87712556,25.65544776,-99999.0,'11111222,11111222,99999999' 
TABS,ioos:station:wmo:42050:1,2000-09-01T23:30:00Z,28.8425,-94.2433,2.0,82.42138852,26.00717786,-99999.0,'11111222,11111222,99999999' 
TABS,ioos:station:wmo:42050:1,2000-09-02T00:00:00Z,28.8425,-94.2433,2.0,86.26099602,22.84863453,-99999.0,'11111222,11111222,99999999' 
TABS,ioos:station:wmo:42050:1,2000-09-02T00:30:00Z,28.8425,-94.2433,2.0,90.0,26.52,-99999.0,'11111222,11111222,99999999' 
TABS,ioos:station:wmo:42050:1,2000-09-02T01:00:00Z,28.8425,-94.2433,2.0,93.40544931,27.60875224,-99999.0,'11111222,11111222,99999999' 
TABS,ioos:station:wmo:42050:1,2000-09-02T01:30:00Z,28.8425,-94.2433,2.0,101.3842761,25.68535186,-99999.0,'11111222,11111222,99999999' 
TABS,ioos:station:wmo:42050:1,2000-09-02T02:00:00Z,28.8425,-94.2433,2.0,99.34692267,22.04266091,-99999.0,'11111222,11111222,99999999' 
TABS,ioos:station:wmo:42050:1,2000-09-02T02:30:00Z,28.8425,-94.2433,2.0,106.1500327,17.68803268,-99999.0,'11111222,11111222,99999999' 
TABS,ioos:station:wmo:42050:1,2000-09-02T03:00:00Z,28.8425,-94.2433,2.0,103.1919149,19.58687826,-99999.0,'11111222,11111222,99999999' 
TABS,ioos:station:wmo:42050:1,2000-09-02T03:30:00Z,28.8425,-94.2433,2.0,94.2504311,18.07972621,-99999.0,'11111222,11111222,99999999' 
TABS,ioos:station:wmo:42050:1,2000-09-02T04:00:00Z,28.8425,-94.2433,2.0,94.52094733,15.09697321,-99999.0,'11111222,11111222,99999999' 
TABS,ioos:station:wmo:42050:1,2000-09-02T04:30:00Z,28.8425,-94.2433,2.0,92.58511307,16.4066968,-99999.0,'11111222,11111222,99999999' 
TABS,ioos:station:wmo:42050:1,2000-09-02T05:00:00Z,28.8425,-94.2433,2.0,85.02882757,17.19467941,-99999.0,'11111222,11111222,99999999' 
TABS,ioos:station:wmo:42050:1,2000-09-02T05:30:00Z,28.8425,-94.2433,2.0,86.72592966,18.20972268,-99999.0,'11111222,11111222,99999999' 
TABS,ioos:station:wmo:42050:1,2000-09-02T06:00:00Z,28.8425,-94.2433,2.0,76.14753378,21.17589431,-99999.0,'11111222,11111222,99999999' 
TABS,ioos:station:wmo:42050:1,2000-09-02T06:30:00Z,28.8425,-94.2433,2.0,72.6095312,23.42055721,-99999.0,'11111222,11111222,99999999' 
TABS,ioos:station:wmo:42050:1,2000-09-02T07:00:00Z,28.8425,-94.2433,2.0,70.85521659,22.71638396,-99999.0,'11111222,11111222,99999999' 
TABS,ioos:station:wmo:42050:1,2000-09-02T07:30:00Z,28.8425,-94.2433,2.0,58.62900772,24.60723877,-99999.0,'11111222,11111222,99999999' 
TABS,ioos:station:wmo:42050:1,2000-09-02T08:00:00Z,28.8425,-94.2433,2.0,58.23954333,22.07571743,-99999.0,'11111222,11111222,99999999' 
TABS,ioos:station:wmo:42050:1,2000-09-02T08:30:00Z,28.8425,-94.2433,2.0,67.04357021,23.30578684,-99999.0,'11111222,11111222,99999999' 
TABS,ioos:station:wmo:42050:1,2000-09-02T09:00:00Z,28.8425,-94.2433,2.0,67.07300505,24.10419258,-99999.0,'11111222,11111222,99999999' 
TABS,ioos:station:wmo:42050:1,2000-09-02T09:30:00Z,28.8425,-94.2433,2.0,63.61983497,20.79554039,-99999.0,'11111222,11111222,99999999' 
TABS,ioos:station:wmo:42050:1,2000-09-02T10:00:00Z,28.8425,-94.2433,2.0,70.72531597,19.41847059,-99999.0,'11111222,11111222,99999999' 
TABS,ioos:station:wmo:42050:1,2000-09-02T10:30:00Z,28.8425,-94.2433,2.0,76.4328386,17.77603162,-99999.0,'11111222,11111222,99999999' 
TABS,ioos:station:wmo:42050:1,2000-09-02T11:00:00Z,28.8425,-94.2433,2.0,69.32082932,16.87737243,-99999.0,'11111222,11111222,99999999' 
TABS,ioos:station:wmo:42050:1,2000-09-02T11:30:00Z,28.8425,-94.2433,2.0,90.0,18.33,-99999.0,'11111222,11111222,99999999' 
TABS,ioos:station:wmo:42050:1,2000-09-02T12:00:00Z,28.8425,-94.2433,2.0,79.56169073,17.27590808,-99999.0,'11111222,11111222,99999999' 
TABS,ioos:station:wmo:42050:1,2000-09-02T12:30:00Z,28.8425,-94.2433,2.0,101.3166285,16.71497831,-99999.0,'11111222,11111222,99999999' 
TABS,ioos:station:wmo:42050:1,2000-09-02T13:00:00Z,28.8425,-94.2433,2.0,106.687445,18.66611904,-99999.0,'11111222,11111222,99999999' 
TABS,ioos:station:wmo:42050:1,2000-09-02T13:30:00Z,28.8425,-94.2433,2.0,115.2587044,17.45928406,-99999.0,'11111222,11111222,99999999' 
TABS,ioos:station:wmo:42050:1,2000-09-02T14:00:00Z,28.8425,-94.2433,2.0,118.0023284,15.86765893,-99999.0,'11111222,11111222,99999999' 
TABS,ioos:station:wmo:42050:1,2000-09-02T14:30:00Z,28.8425,-94.2433,2.0,113.1150454,14.41746164,-99999.0,'11111222,11111222,99999999' 
TABS,ioos:station:wmo:42050:1,2000-09-02T15:00:00Z,28.8425,-94.2433,2.0,113.4520552,17.21181571,-99999.0,'11111222,11111222,99999999' 
TABS,ioos:station:wmo:42050:1,2000-09-02T15:30:00Z,28.8425,-94.2433,2.0,113.17644,13.61910423,-99999.0,'11111222,11111222,99999999' 
TABS,ioos:station:wmo:42050:1,2000-09-02T16:00:00Z,28.8425,-94.2433,2.0,106.1744091,14.43121616,-99999.0,'11111222,11111222,99999999' 
TABS,ioos:station:wmo:42050:1,2000-09-02T16:30:00Z,28.8425,-94.2433,2.0,105.4417807,14.53468266,-99999.0,'11111222,11111222,99999999' 
TABS,ioos:station:wmo:42050:1,2000-09-02T17:00:00Z,28.8425,-94.2433,2.0,100.1610644,16.04160216,-99999.0,'11111222,11111222,99999999' 
TABS,ioos:station:wmo:42050:1,2000-09-02T17:30:00Z,28.8425,-94.2433,2.0,96.34799352,16.18926187,-99999.0,'11111222,11111222,99999999' 
TABS,ioos:station:wmo:42050:1,2000-09-02T18:00:00Z,28.8425,-94.2433,2.0,96.29724812,17.68671818,-99999.0,'11111222,11111222,99999999' 
TABS,ioos:station:wmo:42050:1,2000-09-02T18:30:00Z,28.8425,-94.2433,2.0,89.57892248,20.41055119,-99999.0,'11111222,11111222,99999999' 
TABS,ioos:station:wmo:42050:1,2000-09-02T19:00:00Z,28.8425,-94.2433,2.0,81.38523484,19.894454,-99999.0,'11111222,11111222,99999999' 
TABS,ioos:station:wmo:42050:1,2000-09-02T19:30:00Z,28.8425,-94.2433,2.0,80.32068949,20.40041666,-99999.0,'11111222,11111222,99999999' 
TABS,ioos:station:wmo:42050:1,2000-09-02T20:00:00Z,28.8425,-94.2433,2.0,79.09208784,21.24382263,-99999.0,'11111222,11111222,99999999' 
TABS,ioos:station:wmo:42050:1,2000-09-02T20:30:00Z,28.8425,-94.2433,2.0,76.14753378,21.17589431,-99999.0,'11111222,11111222,99999999' 
TABS,ioos:station:wmo:42050:1,2000-09-02T21:00:00Z,28.8425,-94.2433,2.0,76.85417079,23.56760701,-99999.0,'11111222,11111222,99999999' 
TABS,ioos:station:wmo:42050:1,2000-09-02T21:30:00Z,28.8425,-94.2433,2.0,75.87846032,24.42821524,-99999.0,'11111222,11111222,99999999' 
TABS,ioos:station:wmo:42050:1,2000-09-02T22:00:00Z,28.8425,-94.2433,2.0,75.61316173,23.38329746,-99999.0,'11111222,11111222,99999999' 
TABS,ioos:station:wmo:42050:1,2000-09-02T22:30:00Z,28.8425,-94.2433,2.0,75.17832905,23.88472734,-99999.0,'11111222,11111222,99999999' 
TABS,ioos:station:wmo:42050:1,2000-09-02T23:00:00Z,28.8425,-94.2433,2.0,75.10801284,24.35814443,-99999.0,'11111222,11111222,99999999' 
TABS,ioos:station:wmo:42050:1,2000-09-02T23:30:00Z,28.8425,-94.2433,2.0,74.09000906,24.47765716,-99999.0,'11111222,11111222,99999999' 
TABS,ioos:station:wmo:42050:1,2000-09-03T00:00:00Z,28.8425,-94.2433,2.0,79.35503867,25.01041383,-99999.0,'11111222,11111222,99999999' 
TABS,ioos:station:wmo:42050:1,2000-09-03T00:30:00Z,28.8425,-94.2433,2.0,79.82757509,23.61115203,-99999.0,'11111222,11111222,99999999' 
TABS,ioos:station:wmo:42050:1,2000-09-03T01:00:00Z,28.8425,-94.2433,2.0,81.41351185,25.92052854,-99999.0,'11111222,11111222,99999999' 
TABS,ioos:station:wmo:42050:1,2000-09-03T01:30:00Z,28.8425,-94.2433,2.0,80.07844162,24.2019524,-99999.0,'11111222,11111222,99999999' 
TABS,ioos:station:wmo:42050:1,2000-09-03T02:00:00Z,28.8425,-94.2433,2.0,84.29142405,28.4510984,-99999.0,'11111222,11111222,99999999' 
TABS,ioos:station:wmo:42050:1,2000-09-03T02:30:00Z,28.8425,-94.2433,2.0,90.0,23.39,-99999.0,'11111222,11111222,99999999' 
TABS,ioos:station:wmo:42050:1,2000-09-03T03:00:00Z,28.8425,-94.2433,2.0,87.00716642,25.66500536,-99999.0,'11111222,11111222,99999999' 
TABS,ioos:station:wmo:42050:1,2000-09-03T03:30:00Z,28.8425,-94.2433,2.0,86.32381798,27.91744437,-99999.0,'11111222,11111222,99999999' 
TABS,ioos:station:wmo:42050:1,2000-09-03T04:00:00Z,28.8425,-94.2433,2.0,83.58597493,23.99016465,-99999.0,'11111222,11111222,99999999' 
TABS,ioos:station:wmo:42050:1,2000-09-03T04:30:00Z,28.8425,-94.2433,2.0,89.29673362,24.44184117,-99999.0,'11111222,11111222,99999999' 
TABS,ioos:station:wmo:42050:1,2000-09-03T05:00:00Z,28.8425,-94.2433,2.0,85.46149853,24.51687582,-99999.0,'11111222,11111222,99999999' 
TABS,ioos:station:wmo:42050:1,2000-09-03T05:30:00Z,28.8425,-94.2433,2.0,84.43749115,21.56153288,-99999.0,'11111222,11111222,99999999' 
TABS,ioos:station:wmo:42050:1,2000-09-03T06:00:00Z,28.8425,-94.2433,2.0,72.96535808,22.90489249,-99999.0,'11111222,11111222,99999999' 
TABS,ioos:station:wmo:42050:1,2000-09-03T06:30:00Z,28.8425,-94.2433,2.0,84.22510959,22.1624773,-99999.0,'11111222,11111222,99999999' 
TABS,ioos:station:wmo:42050:1,2000-09-03T07:00:00Z,28.8425,-94.2433,2.0,85.71736077,21.96132054,-99999.0,'11111222,11111222,99999999' 
TABS,ioos:station:wmo:42050:1,2000-09-03T07:30:00Z,28.8425,-94.2433,2.0,70.65330423,23.84659305,-99999.0,'11111222,11111222,99999999' 
TABS,ioos:station:wmo:42050:1,2000-09-03T08:00:00Z,28.8425,-94.2433,2.0,69.03567061,22.4993911,-99999.0,'11111222,11111222,99999999' 
TABS,ioos:station:wmo:42050:1,2000-09-03T08:30:00Z,28.8425,-94.2433,2.0,73.33037767,25.97146319,-99999.0,'11111222,11111222,99999999' 
TABS,ioos:station:wmo:42050:1,2000-09-03T09:00:00Z,28.8425,-94.2433,2.0,78.82677001,23.84190638,-99999.0,'11111222,11111222,99999999' 
TABS,ioos:station:wmo:42050:1,2000-09-03T09:30:00Z,28.8425,-94.2433,2.0,77.67241002,24.40265764,-99999.0,'11111222,11111222,99999999' 
TABS,ioos:station:wmo:42050:1,2000-09-03T10:00:00Z,28.8425,-94.2433,2.0,70.62335228,25.58944509,-99999.0,'11111222,11111222,99999999' 
TABS,ioos:station:wmo:42050:1,2000-09-03T10:30:00Z,28.8425,-94.2433,2.0,81.6039391,26.50406195,-99999.0,'11111222,11111222,99999999' 
TABS,ioos:station:wmo:42050:1,2000-09-03T11:00:00Z,28.8425,-94.2433,2.0,72.74223642,23.08949978,-99999.0,'11111222,11111222,99999999' 
TABS,ioos:station:wmo:42050:1,2000-09-03T11:30:00Z,28.8425,-94.2433,2.0,73.29575518,21.77905416,-99999.0,'11111222,11111222,99999999' 
TABS,ioos:station:wmo:42050:1,2000-09-03T12:00:00Z,28.8425,-94.2433,2.0,76.29522981,25.15621593,-99999.0,'11111222,11111222,99999999' 
TABS,ioos:station:wmo:42050:1,2000-09-03T12:30:00Z,28.8425,-94.2433,2.0,88.34619578,25.64068057,-99999.0,'11111222,11111222,99999999' 
TABS,ioos:station:wmo:42050:1,2000-09-03T13:00:00Z,28.8425,-94.2433,2.0,88.28604408,24.7410691,-99999.0,'11111222,11111222,99999999' 
TABS,ioos:station:wmo:42050:1,2000-09-03T13:30:00Z,28.8425,-94.2433,2.0,83.4322272,24.74237862,-99999.0,'11111222,11111222,99999999' 
TABS,ioos:station:wmo:42050:1,2000-09-03T14:00:00Z,28.8425,-94.2433,2.0,91.88371113,22.5121656,-99999.0,'11111222,11111222,99999999' 
TABS,ioos:station:wmo:42050:1,2000-09-03T14:30:00Z,28.8425,-94.2433,2.0,95.48103702,23.34674496,-99999.0,'11111222,11111222,99999999' 
TABS,ioos:station:wmo:42050:1,2000-09-03T15:00:00Z,28.8425,-94.2433,2.0,104.5598845,20.16767959,-99999.0,'11111222,11111222,99999999' 
TABS,ioos:station:wmo:42050:1,2000-09-03T15:30:00Z,28.8425,-94.2433,2.0,107.5876825,22.6696846,-99999.0,'11111222,11111222,99999999' 
TABS,ioos:station:wmo:42050:1,2000-09-03T16:00:00Z,28.8425,-94.2433,2.0,107.2929511,19.04069326,-99999.0,'11111222,11111222,99999999' 
TABS,ioos:station:wmo:42050:1,2000-09-03T16:30:00Z,28.8425,-94.2433,2.0,106.2975478,23.91080509,-99999.0,'11111222,11111222,99999999' 
TABS,ioos:station:wmo:42050:1,2000-09-03T17:00:00Z,28.8425,-94.2433,2.0,108.4488905,25.91170392,-99999.0,'11111222,11111222,99999999' 
TABS,ioos:station:wmo:42050:1,2000-09-03T17:30:00Z,28.8425,-94.2433,2.0,101.8968035,25.27285105,-99999.0,'11111222,11111222,99999999' 
TABS,ioos:station:wmo:42050:1,2000-09-03T18:00:00Z,28.8425,-94.2433,2.0,98.9140505,25.94334789,-99999.0,'11111222,11111222,99999999' 
TABS,ioos:station:wmo:42050:1,2000-09-03T18:30:00Z,28.8425,-94.2433,2.0,98.38420095,24.55240314,-99999.0,'11111222,11111222,99999999' 
TABS,ioos:station:wmo:42050:1,2000-09-03T19:00:00Z,28.8425,-94.2433,2.0,93.79407495,24.78431964,-99999.0,'11111222,11111222,99999999' 
TABS,ioos:station:wmo:42050:1,2000-09-03T19:30:00Z,28.8425,-94.2433,2.0,88.7395731,27.27659986,-99999.0,'11111222,11111222,99999999' 
TABS,ioos:station:wmo:42050:1,2000-09-03T20:00:00Z,28.8425,-94.2433,2.0,84.72834766,27.53647218,-99999.0,'11111222,11111222,99999999' 
TABS,ioos:station:wmo:42050:1,2000-09-03T20:30:00Z,28.8425,-94.2433,2.0,83.65758994,28.33341667,-99999.0,'11111222,11111222,99999999' 
TABS,ioos:station:wmo:42050:1,2000-09-03T21:00:00Z,28.8425,-94.2433,2.0,83.04565132,29.56753118,-99999.0,'11111222,11111222,99999999' 
TABS,ioos:station:wmo:42050:1,2000-09-03T21:30:00Z,28.8425,-94.2433,2.0,80.14995032,29.63688411,-99999.0,'11111222,11111222,99999999' 
TABS,ioos:station:wmo:42050:1,2000-09-03T22:00:00Z,28.8425,-94.2433,2.0,75.27110555,29.89227492,-99999.0,'11111222,11111222,99999999' 
TABS,ioos:station:wmo:42050:1,2000-09-03T22:30:00Z,28.8425,-94.2433,2.0,73.92327752,26.36093511,-99999.0,'11111222,11111222,99999999' 
TABS,ioos:station:wmo:42050:1,2000-09-03T23:00:00Z,28.8425,-94.2433,2.0,73.05206993,29.12489828,-99999.0,'11111222,11111222,99999999' 
TABS,ioos:station:wmo:42050:1,2000-09-03T23:30:00Z,28.8425,-94.2433,2.0,72.87832154,28.83805992,-99999.0,'11111222,11111222,99999999' 
TABS,ioos:station:wmo:42050:1,2000-09-04T00:00:00Z,28.8425,-94.2433,2.0,71.66074636,28.41310437,-99999.0,'11111222,11111222,99999999' 
TABS,ioos:station:wmo:42050:1,2000-09-04T00:30:00Z,28.8425,-94.2433,2.0,72.56122863,29.83111128,-99999.0,'11111222,11111222,99999999' 
TABS,ioos:station:wmo:42050:1,2000-09-04T01:00:00Z,28.8425,-94.2433,2.0,77.466913,28.84741236,-99999.0,'11111222,11111222,99999999' 
TABS,ioos:station:wmo:42050:1,2000-09-04T01:30:00Z,28.8425,-94.2433,2.0,76.6513041,30.31913587,-99999.0,'11111222,11111222,99999999' 
TABS,ioos:station:wmo:42050:1,2000-09-04T02:00:00Z,28.8425,-94.2433,2.0,79.73199776,29.22809778,-99999.0,'11111222,11111222,99999999' 
TABS,ioos:station:wmo:42050:1,2000-09-04T02:30:00Z,28.8425,-94.2433,2.0,82.90442545,28.98195991,-99999.0,'11111222,11111222,99999999' 
TABS,ioos:station:wmo:42050:1,2000-09-04T03:00:00Z,28.8425,-94.2433,2.0,88.79027644,21.31475076,-99999.0,'11111222,11111222,99999999' 
TABS,ioos:station:wmo:42050:1,2000-09-04T03:30:00Z,28.8425,-94.2433,2.0,88.39258045,26.38038097,-99999.0,'11111222,11111222,99999999' 
TABS,ioos:station:wmo:42050:1,2000-09-04T04:00:00Z,28.8425,-94.2433,2.0,90.0,25.03,-99999.0,'11111222,11111222,99999999' 
TABS,ioos:station:wmo:42050:1,2000-09-04T04:30:00Z,28.8425,-94.2433,2.0,88.62681562,25.03719034,-99999.0,'11111222,11111222,99999999' 
TABS,ioos:station:wmo:42050:1,2000-09-04T05:00:00Z,28.8425,-94.2433,2.0,90.40047562,21.46052422,-99999.0,'11111222,11111222,99999999' 
TABS,ioos:station:wmo:42050:1,2000-09-04T05:30:00Z,28.8425,-94.2433,2.0,87.74150149,26.39050018,-99999.0,'11111222,11111222,99999999' 
TABS,ioos:station:wmo:42050:1,2000-09-04T06:00:00Z,28.8425,-94.2433,2.0,81.59550049,22.4409982,-99999.0,'11111222,11111222,99999999' 
TABS,ioos:station:wmo:42050:1,2000-09-04T06:30:00Z,28.8425,-94.2433,2.0,79.0036312,21.86139291,-99999.0,'11111222,11111222,99999999' 
TABS,ioos:station:wmo:42050:1,2000-09-04T07:00:00Z,28.8425,-94.2433,2.0,74.48694642,19.47965605,-99999.0,'11111222,11111222,99999999' 
TABS,ioos:station:wmo:42050:1,2000-09-04T07:30:00Z,28.8425,-94.2433,2.0,83.58051461,19.94505703,-99999.0,'11111222,11111222,99999999' 
TABS,ioos:station:wmo:42050:1,2000-09-04T08:00:00Z,28.8425,-94.2433,2.0,75.37507553,17.7036098,-99999.0,'11111222,11111222,99999999' 
TABS,ioos:station:wmo:42050:1,2000-09-04T08:30:00Z,28.8425,-94.2433,2.0,76.5738068,17.31317417,-99999.0,'11111222,11111222,99999999' 
TABS,ioos:station:wmo:42050:1,2000-09-04T09:00:00Z,28.8425,-94.2433,2.0,82.89077663,18.01852658,-99999.0,'11111222,11111222,99999999' 
TABS,ioos:station:wmo:42050:1,2000-09-04T09:30:00Z,28.8425,-94.2433,2.0,72.15372747,18.46867618,-99999.0,'11111222,11111222,99999999' 
TABS,ioos:station:wmo:42050:1,2000-09-04T10:00:00Z,28.8425,-94.2433,2.0,77.18360522,18.79834567,-99999.0,'11111222,11111222,99999999' 
TABS,ioos:station:wmo:42050:1,2000-09-04T10:30:00Z,28.8425,-94.2433,2.0,90.0,18.63,-99999.0,'11111222,11111222,99999999' 
TABS,ioos:station:wmo:42050:1,2000-09-04T11:00:00Z,28.8425,-94.2433,2.0,78.34218605,18.409761,-99999.0,'11111222,11111222,99999999' 
TABS,ioos:station:wmo:42050:1,2000-09-04T11:30:00Z,28.8425,-94.2433,2.0,85.60978522,15.54561353,-99999.0,'11111222,11111222,99999999' 
TABS,ioos:station:wmo:42050:1,2000-09-04T12:00:00Z,28.8425,-94.2433,2.0,74.75477796,15.28799856,-99999.0,'11111222,11111222,99999999' 
TABS,ioos:station:wmo:42050:1,2000-09-04T12:30:00Z,28.8425,-94.2433,2.0,84.13649336,17.52167229,-99999.0,'11111222,11111222,99999999' 
TABS,ioos:station:wmo:42050:1,2000-09-04T13:00:00Z,28.8425,-94.2433,2.0,86.11632313,13.14017504,-99999.0,'11111222,11111222,99999999' 
TABS,ioos:station:wmo:42050:1,2000-09-04T13:30:00Z,28.8425,-94.2433,2.0,93.59753989,11.79323959,-99999.0,'11111222,11111222,99999999' 
TABS,ioos:station:wmo:42050:1,2000-09-04T14:00:00Z,28.8425,-94.2433,2.0,101.309906,15.19507815,-99999.0,'11111222,11111222,99999999' 
TABS,ioos:station:wmo:42050:1,2000-09-04T14:30:00Z,28.8425,-94.2433,2.0,109.1726809,14.98095124,-99999.0,'11111222,11111222,99999999' 
TABS,ioos:station:wmo:42050:1,2000-09-04T15:00:00Z,28.8425,-94.2433,2.0,118.3842605,12.53724451,-99999.0,'11111222,11111222,99999999' 
TABS,ioos:station:wmo:42050:1,2000-09-04T15:30:00Z,28.8425,-94.2433,2.0,116.3265897,16.12218968,-99999.0,'11111222,11111222,99999999' 
TABS,ioos:station:wmo:42050:1,2000-09-04T16:00:00Z,28.8425,-94.2433,2.0,121.3687634,14.31191462,-99999.0,'11111222,11111222,99999999' 